Regional Weather Roundup
Issued by NWS Goodland, KS

Home | Current Version | Previous Version | Graphics & Text | Print | Product List | Glossary On
Versions: 1 2 3 4 5 6 7 8 9 10 11 12 13 14 15 16 17 18 19 20 21 22 23 24 25 26 27 28 29 30 31 32 33 34 35 36 37 38 39 40 41 42 43 44 45 46 47 48 49 50
405
ASUS43 KGLD 290708
RWRGLD

GOODLAND FORECAST AREA HOURLY WEATHER ROUNDUP
NATIONAL WEATHER SERVICE GOODLAND KS
100 AM MDT THU SEP 29 2016

...OFFICIAL OBSERVATIONS...

CITY           SKY/WX    TMP DP  RH WIND       PRES   REMARKS
GOODLAND KS    CLEAR     47  38  71 S9        30.37S
HILL CITY KS   CLEAR     46  42  86 CALM      30.36R
IMPERIAL NEB   CLEAR     48  35  60 S5        30.38R
MCCOOK NEB     CLEAR     48  38  68 CALM      30.37R HAZE
AKRON CO       CLEAR     51  39  63 SE12      30.38F
BURLINGTON CO  CLEAR     49  40  71 S8        30.39S
LIMON CO       CLOUDY    47  38  71 SE5       30.42S
$$

...UNOFFICIAL OBSERVATIONS...

CITY           SKY/WX    TMP DP  RH WIND       PRES   REMARKS
COLBY KS       CLEAR     48  41  76 SE3       30.38S
LENORA KS        N/A     50  32  50 MISG        N/A
NORTON KS      CLEAR     46  37  71 CALM      30.35S
SHARON SPRINGS   N/A     49  42  76 S5          N/A
TRIBUNE KS     PTCLDY    50  43  76 CALM      30.39S
KIT CARSON CO    N/A     54  42  64 CALM        N/A
$$




USA.gov is the U.S. government's official web portal to all federal, state and local government web resources and services.